"Pseudo-MPEC" for P213t1z

Created 2020 Aug 2 2:07:20 UT using Find_Orb

Click here for an explanation of pseudo-MPECs

 
 Astrometry: 
     P213t1z  C2020 07 30T.*Astrometry8y6FT$,1VwZrSD7Z#80PUredacted;0i4=PiKZ[F51
     P213t1z  C2020 07 30JJ'XOgC_asx3LCJ-F==PrMt,EJOJ^0Ock-l3Q+Ql%PZQM^8s!0#sF51
     P213t1z  C2020 08 017wZ\clickGc-`t6hereIeC;RNF*u%ZU1-9IZforoY7hq5-6fnv`*F52
     P213t1z  C2020 08 01E%(:XV;+@P`+7TUqIh.k_wnG44;0N0S($e^s'jn1*yH^Tsaw(S6YF52
     P213t1z  C2020 08 01!]m5SXcSB[\st==BOHAw`Pq'SUexplanation=fV!ZkTlT-hJBh`F52

Station data:
(F51) Pan-STARRS 1, Haleakala  (N20.707235 W156.255910)  US/Hawaii.
   Observers N. Primak, A. Schultz, S. Watters, J. Thiel, T. Goggia. Measurer
   PS1 Science Consortium. 1.8-m Ritchey-Chrétien + CCD.
(F52) Pan-STARRS 2, Haleakala  (N20.707384 W156.255910)  US/Hawaii. 1.8-m
   Ritchey-Chrétien + CCD.

Orbital elements:  P213t1z
   Perihelion 2020 Apr 11.726259 +/- 121 TT = 17:25:48 (JD 2458951.226259)
Epoch 2020 Aug  1.0 TT = JDT 2459062.5   Earth MOID: 0.8620   AutoNEOCP
M  25.36143969 +/- 90               (J2000 ecliptic)
n   0.22791935 +/- 0.416            Peri.  329.80929 +/- 100
a   2.65429124 +/- 3.23             Node    11.65914 +/- 24
e   0.3101356 +/- 0.214             Incl.   31.28987 +/- 35
P   4.32                   H 17.3   G  0.15   U 12.2  SR
q 1.83110092 +/- 0.648    Q 3.47748155 +/- 13.1
From 5 observations 2020 July 30-Aug. 1; mean residual 0".13
Residuals in arcseconds: 
200730 F51  .22-  .04+    200801 F52  .08+  .15-    200801 F52  .01+  .16+    
200730 F51  .22+  .04-    200801 F52  .09-  .01-    

Ephemerides (geocentric):
Date (UTC) HH   RA              Dec         delta   r     elong  mag " sig PA
---- -- -- --  -------------   -----------  ------ ------ -----  --- ---- ---
2020 08 02 02  03 29 04.125   +28 20 07.34  2.0277 1.9889  73.3 21.6 12.6 132
2020 08 02 03  03 29 07.871   +28 20 56.68  2.0273 1.9890  73.3 21.6 13.9 132
2020 08 02 04  03 29 11.616   +28 21 46.02  2.0270 1.9891  73.3 21.6 15.2 132
2020 08 02 05  03 29 15.360   +28 22 35.37  2.0267 1.9892  73.3 21.6 16.5 132
2020 08 02 06  03 29 19.103   +28 23 24.71  2.0263 1.9893  73.3 21.6 17.9 132
2020 08 02 07  03 29 22.845   +28 24 14.06  2.0260 1.9894  73.4 21.6 19.4 132
2020 08 02 08  03 29 26.587   +28 25 03.41  2.0257 1.9895  73.4 21.6 20.8 132
2020 08 02 09  03 29 30.327   +28 25 52.76  2.0253 1.9896  73.4 21.6 22.3 132
2020 08 02 10  03 29 34.066   +28 26 42.11  2.0250 1.9897  73.4 21.6 23.9 132
2020 08 02 11  03 29 37.805   +28 27 31.47  2.0247 1.9899  73.5 21.6 25.4 132
2020 08 02 12  03 29 41.542   +28 28 20.82  2.0243 1.9900  73.5 21.6 27.1 132
2020 08 02 13  03 29 45.279   +28 29 10.18  2.0240 1.9901  73.5 21.6 28.7 132
2020 08 02 14  03 29 49.015   +28 29 59.54  2.0237 1.9902  73.5 21.6 30.4 132
2020 08 02 15  03 29 52.750   +28 30 48.90  2.0233 1.9903  73.6 21.6 32.1 132
2020 08 02 16  03 29 56.484   +28 31 38.26  2.0230 1.9904  73.6 21.6 33.9 132
2020 08 02 17  03 30 00.217   +28 32 27.62  2.0227 1.9905  73.6 21.6 35.7 132
2020 08 02 18  03 30 03.949   +28 33 16.99  2.0223 1.9906  73.6 21.6 37.5 132
2020 08 02 19  03 30 07.680   +28 34 06.35  2.0220 1.9907  73.6 21.6 39.4 132
2020 08 02 20  03 30 11.410   +28 34 55.72  2.0217 1.9908  73.7 21.6 41.3 132
2020 08 02 21  03 30 15.139   +28 35 45.09  2.0213 1.9909  73.7 21.6 43.3 132
2020 08 02 22  03 30 18.868   +28 36 34.46  2.0210 1.9910  73.7 21.6 45.3 132
2020 08 02 23  03 30 22.595   +28 37 23.83  2.0207 1.9911  73.7 21.6 47.3 132
2020 08 03 00  03 30 26.322   +28 38 13.21  2.0203 1.9913  73.8 21.6 49.4 132
2020 08 03 01  03 30 30.047   +28 39 02.58  2.0200 1.9914  73.8 21.6 51.5 132
2020 08 03 02  03 30 33.772   +28 39 51.96  2.0197 1.9915  73.8 21.6 53.6 132
2020 08 03 03  03 30 37.495   +28 40 41.34  2.0193 1.9916  73.8 21.6 55.8 132
2020 08 03 04  03 30 41.218   +28 41 30.72  2.0190 1.9917  73.9 21.6 58.0 132
2020 08 03 05  03 30 44.940   +28 42 20.10  2.0186 1.9918  73.9 21.6 60.3 132
2020 08 03 06  03 30 48.661   +28 43 09.49  2.0183 1.9919  73.9 21.6 62.6 132
2020 08 03 07  03 30 52.381   +28 43 58.87  2.0180 1.9920  73.9 21.6 64.9 132
2020 08 03 08  03 30 56.100   +28 44 48.26  2.0176 1.9921  74.0 21.6 67.3 132
2020 08 03 09  03 30 59.818   +28 45 37.65  2.0173 1.9922  74.0 21.6 69.7 132
2020 08 03 10  03 31 03.535   +28 46 27.04  2.0170 1.9923  74.0 21.6 72.1 132
2020 08 03 11  03 31 07.251   +28 47 16.43  2.0166 1.9924  74.0 21.6 74.6 132
2020 08 03 12  03 31 10.966   +28 48 05.83  2.0163 1.9925  74.0 21.6 77.2 132
2020 08 03 13  03 31 14.680   +28 48 55.22  2.0160 1.9927  74.1 21.5 79.7 132
2020 08 03 14  03 31 18.394   +28 49 44.62  2.0156 1.9928  74.1 21.5 82.3 132
2020 08 03 15  03 31 22.106   +28 50 34.02  2.0153 1.9929  74.1 21.5 85.0 132
2020 08 03 16  03 31 25.818   +28 51 23.42  2.0150 1.9930  74.1 21.5 87.7 132
2020 08 03 17  03 31 29.528   +28 52 12.82  2.0146 1.9931  74.2 21.5 90.4 132
2020 08 03 18  03 31 33.237   +28 53 02.23  2.0143 1.9932  74.2 21.5 93.1 132
2020 08 03 19  03 31 36.946   +28 53 51.63  2.0140 1.9933  74.2 21.5 95.9 132
2020 08 03 20  03 31 40.654   +28 54 41.04  2.0136 1.9934  74.2 21.5 98.8 132
2020 08 03 21  03 31 44.360   +28 55 30.45  2.0133 1.9935  74.3 21.5  102 132
2020 08 03 22  03 31 48.066   +28 56 19.86  2.0130 1.9936  74.3 21.5  105 132
2020 08 03 23  03 31 51.771   +28 57 09.28  2.0126 1.9937  74.3 21.5  108 132
2020 08 04 00  03 31 55.474   +28 57 58.69  2.0123 1.9938  74.3 21.5  111 132
2020 08 04 01  03 31 59.177   +28 58 48.11  2.0120 1.9940  74.3 21.5  114 132